Location: La Bastide
(43.1661°N, 1.2755°E)
Time: 01:03:42
(UTC+00:00)

SMAP - Pass Details

Date: 13 December 2025
Orbit: 681 x 683 km, 98.1° (Epoch: 17 January)

Event Time Altitude Azimuth Distance (km) Brightness Sun altitude
Rises 17:11:20 0° 162° (SSE) 3,032 6.5 -9.1°
Reaches altitude 10° 17:13:33 10° 161° (SSE) 2,121 5.7 -9.5°
Maximum altitude 17:18:12 81° 77° (ENE) 698 3.0 -10.3°
Drops below altitude 10° 17:22:53 10° 349° (N) 2,137 5.5 -11.1°
Sets 17:25:07 0° 349° (NNW) 3,056 6.3 -11.5°
